Weather History for Statesboro, GA

Change the Weather History Date:

Tuesday, February 5, 2013

  Actual Average (KSAV) Record (KSAV)
Temperature  
Mean Temperature 52 °F 51 °F  
Max Temperature 71 °F 62 °F 82 °F (1957)
Min Temperature 33 °F 40 °F 15 °F (1917)
Degree Days  
Heating Degree Days 13 14  
Month to date heating degree days 70  
Since 1 July heating degree days 1244  
Cooling Degree Days 0 0  
Month to date cooling degree days 0  
Year to date cooling degree days 3  
Growing Degree Days 2 (Base 50)    
Moisture  
Dew Point 42 °F    
Average Humidity 75    
Maximum Humidity 100    
Minimum Humidity 38    
Precipitation  
Precipitation 0.00 in 0.11 in 2.36 in (1960)
Month to date precipitation 0.54  
Year to date precipitation 4.23  
Sea Level Pressure  
Sea Level Pressure 30.03 in    
Wind  
Wind Speed 2 mph (WSW)    
Max Wind Speed 13 mph    
Max Gust Speed 21 mph    
Visibility 10 miles    
Events      
T = Trace of Precipitation, MM = Missing Value Source: NWS Daily Summary

Daily Weather History Graph

Daily Weather History Graph

Search for Another Location

Airport:

Trip Planner

Search our weather history database for the weather conditions in past years. The results will help you decide how hot, cold, wet, or windy it might be!

Date:

Astronomy

Feb. 05, 2013 Rise Set
Actual Time 7:18 AM EST 6:04 PM EST
Civil Twilight 6:52 AM EST 6:29 PM EST
Nautical Twilight 6:23 AM EST 6:58 PM EST
Astronomical Twilight 5:54 AM EST 7:27 PM EST
Moon 2:52 AM EST (2/5) 1:26 PM EST (2/5)
Length of Visible Light 11h 36m
Length of Day
10h 45m
Waning Crescent, 27% of the Moon is Illuminated
Feb 5
Waning Crescent
Feb 10
New
Feb 17
First Quarter
Feb 25
Full
Mar 4
Last Quarter

Hourly Weather History & Observations

Time (EST) Temp. Dew Point Humidity Pressure Visibility Wind Dir Wind Speed Gust Speed Precip Events Conditions
12:15 AM 33.8 °F 33.8 °F 100% 30.06 in 10.0 mi Calm Calm - N/A   Clear
12:35 AM 35.6 °F 35.6 °F 100% 30.05 in 10.0 mi Calm Calm - N/A   Clear
12:55 AM 33.8 °F 33.8 °F 100% 30.04 in 10.0 mi Calm Calm - N/A   Clear
1:15 AM 35.6 °F 35.6 °F 100% 30.04 in 10.0 mi Calm Calm - N/A   Clear
1:35 AM 33.8 °F 33.8 °F 100% 30.04 in 10.0 mi Calm Calm - N/A   Clear
1:55 AM 33.8 °F 33.8 °F 100% 30.03 in 10.0 mi Calm Calm - N/A   Clear
2:15 AM 33.8 °F 33.8 °F 100% 30.03 in 10.0 mi Calm Calm - N/A   Clear
2:35 AM 33.8 °F 33.8 °F 100% 30.03 in 10.0 mi Calm Calm - N/A   Clear
2:55 AM 33.8 °F 33.8 °F 100% 30.02 in 10.0 mi Calm Calm - N/A   Clear
3:15 AM 33.8 °F 33.8 °F 100% 30.02 in 10.0 mi Calm Calm - N/A   Clear
3:35 AM 33.8 °F 33.8 °F 100% 30.01 in 10.0 mi Calm Calm - N/A   Clear
3:55 AM 33.8 °F 33.8 °F 100% 30.02 in 10.0 mi Calm Calm - N/A   Clear
4:15 AM 33.8 °F 33.8 °F 100% 30.01 in 10.0 mi Calm Calm - N/A   Clear
4:35 AM 35.6 °F 35.6 °F 100% 30.01 in 10.0 mi Calm Calm - N/A   Clear
4:55 AM 35.6 °F 35.6 °F 100% 30.01 in 10.0 mi Calm Calm - N/A   Clear
5:15 AM 35.6 °F 35.6 °F 100% 30.02 in 10.0 mi Calm Calm - N/A   Clear
5:35 AM 35.6 °F 35.6 °F 100% 30.01 in 10.0 mi Calm Calm - N/A   Clear
5:55 AM 35.6 °F 35.6 °F 100% 30.02 in 10.0 mi Calm Calm - N/A   Clear
6:15 AM 35.6 °F 35.6 °F 100% 30.03 in 10.0 mi Calm Calm - N/A   Clear
6:35 AM 35.6 °F 35.6 °F 100% 30.05 in 10.0 mi Calm Calm - N/A   Clear
7:15 AM 37.4 °F 37.4 °F 100% 30.05 in 10.0 mi Calm Calm - N/A   Clear
7:35 AM 35.6 °F 35.6 °F 100% 30.06 in 10.0 mi Calm Calm - N/A   Clear
7:55 AM 37.4 °F 37.4 °F 100% 30.06 in 10.0 mi Calm Calm - N/A   Clear
8:15 AM 37.4 °F 37.4 °F 100% 30.06 in 10.0 mi Calm Calm - N/A   Clear
8:35 AM 41.0 °F 41.0 °F 100% 30.07 in 10.0 mi Calm Calm - N/A   Clear
8:55 AM 46.4 °F 44.6 °F 93% 30.08 in 10.0 mi Calm Calm - N/A   Scattered Clouds
9:15 AM 50.0 °F 44.6 °F 82% 30.08 in 10.0 mi WSW 5.8 mph - N/A   Scattered Clouds
9:35 AM 53.6 °F 44.6 °F 72% 30.08 in 10.0 mi West 6.9 mph - N/A   Clear
9:55 AM 55.4 °F 46.4 °F 72% 30.09 in 10.0 mi West 6.9 mph - N/A   Clear
10:15 AM 57.2 °F 46.4 °F 67% 30.08 in 10.0 mi WSW 6.9 mph - N/A   Clear
11:15 AM 62.6 °F 48.2 °F 59% 30.08 in 10.0 mi West 12.7 mph - N/A   Scattered Clouds
11:55 AM 64.4 °F 48.2 °F 56% 30.06 in 10.0 mi West 9.2 mph - N/A   Overcast
12:15 PM 64.4 °F 48.2 °F 56% 30.05 in 10.0 mi WSW 10.4 mph - N/A   Scattered Clouds
12:35 PM 66.2 °F 48.2 °F 52% 30.04 in 10.0 mi WNW 10.4 mph 18.4 mph N/A   Mostly Cloudy
12:55 PM 68.0 °F 48.2 °F 49% 30.03 in 10.0 mi WNW 9.2 mph - N/A   Mostly Cloudy
1:15 PM 68.0 °F 48.2 °F 49% 30.01 in 10.0 mi WNW 10.4 mph - N/A   Mostly Cloudy
1:55 PM 69.8 °F 46.4 °F 43% 30.00 in 10.0 mi West 11.5 mph 16.1 mph N/A   Mostly Cloudy
2:15 PM 69.8 °F 44.6 °F 40% 29.99 in 10.0 mi WSW 9.2 mph - N/A   Scattered Clouds
2:35 PM 69.8 °F 44.6 °F 40% 29.98 in 10.0 mi WSW 6.9 mph 20.7 mph N/A   Scattered Clouds
2:55 PM 71.6 °F 44.6 °F 38% 29.99 in 10.0 mi West 8.1 mph - N/A   Clear
3:15 PM 71.6 °F 44.6 °F 38% 29.98 in 10.0 mi WSW 8.1 mph - N/A   Clear
3:35 PM 71.6 °F 44.6 °F 38% 29.98 in 10.0 mi WSW 9.2 mph 17.3 mph N/A   Mostly Cloudy
3:55 PM 71.6 °F 44.6 °F 38% 29.98 in 10.0 mi SW 10.4 mph - N/A   Scattered Clouds
4:15 PM 69.8 °F 44.6 °F 40% 29.98 in 10.0 mi WSW 10.4 mph - N/A   Scattered Clouds
4:55 PM 69.8 °F 44.6 °F 40% 29.97 in 10.0 mi SW 9.2 mph - N/A   Scattered Clouds
5:15 PM 69.8 °F 44.6 °F 40% 29.97 in 10.0 mi WSW 8.1 mph - N/A   Clear
6:15 PM 64.4 °F 46.4 °F 52% 29.98 in 10.0 mi Calm Calm - N/A   Scattered Clouds
6:35 PM 64.4 °F 46.4 °F 52% 29.98 in 10.0 mi SSW 3.5 mph - N/A   Clear
6:55 PM 60.8 °F 46.4 °F 59% 29.99 in 10.0 mi Calm Calm - N/A   Clear
7:15 PM 55.4 °F 44.6 °F 67% 30.00 in 10.0 mi Calm Calm - N/A   Clear
7:35 PM 55.4 °F 44.6 °F 67% 30.00 in 10.0 mi South 3.5 mph - N/A   Scattered Clouds
7:55 PM 60.8 °F 48.2 °F 63% 30.01 in 10.0 mi SW 4.6 mph - N/A   Overcast
8:15 PM 62.6 °F 48.2 °F 59% 30.01 in 10.0 mi SW 3.5 mph - N/A   Overcast
8:35 PM 62.6 °F 48.2 °F 59% 30.01 in 10.0 mi SW 3.5 mph - N/A   Overcast
8:55 PM 60.8 °F 48.2 °F 63% 30.02 in 10.0 mi SW 3.5 mph - N/A   Scattered Clouds
9:15 PM 60.8 °F 48.2 °F 63% 30.02 in 10.0 mi SSW 3.5 mph - N/A   Clear
9:35 PM 59.0 °F 50.0 °F 72% 30.03 in 10.0 mi Calm Calm - N/A   Clear
9:55 PM 57.2 °F 48.2 °F 72% 30.04 in 10.0 mi Calm Calm - N/A   Clear
10:15 PM 53.6 °F 46.4 °F 77% 30.04 in 10.0 mi Calm Calm - N/A   Clear
10:35 PM 59.0 °F 50.0 °F 72% 30.04 in 10.0 mi SSW 4.6 mph - N/A   Clear
10:55 PM 57.2 °F 50.0 °F 77% 30.04 in 10.0 mi Calm Calm - N/A   Clear
11:15 PM 57.2 °F 50.0 °F 77% 30.04 in 10.0 mi West 3.5 mph - N/A   Clear
11:35 PM 57.2 °F 50.0 °F 77% 30.04 in 10.0 mi Calm Calm - N/A   Clear
11:55 PM 57.2 °F 50.0 °F 77% 30.04 in 10.0 mi WSW 3.5 mph - N/A   Clear